[[{"header":{"parameterUnit":"m.s-1","parameterCategory":2,"la1":30.2991,"la2":30.254,"lo1":-89.0895,"lo2":-89.0444,"dy":0.0017,"dx":0.0017,"nx":28,"ny":28,"refTime":"2024-03-03T09:00:00:Z","depth":"0","parameterNumber":2,"parameterNumberName":"U-component_of_CURRENTS"},"data":[0,0,0,0,0,0,0,0,0,0,0,0,0,0,0,0,0,0,0,0,0,0,0,0,0,0,0,0,0,0,0,0,0,0,0,0,0,0,0,0,0,0,0,0,0,0,0,0,0,0,0,0,0,0,0,0,0,0,-0.2634,-0.2634,0,-0.265,-0.265,-0.265,-0.2621,-0.262,-0.262,-0.2619,-0.2573,-0.2572,-0.2572,0,0,0,0,0,0,0,0,0,0,0,0,0,-0.2569,-0.2571,-0.2634,-0.2634,-0.2635,-0.265,-0.265,-0.265,-0.2621,-0.262,-0.2619,-0.2619,-0.2573,-0.2572,-0.2572,0,0,0,0,0,0,0,0,0,0,0,0,0,-0.2591,-0.2571,-0.2634,-0.2624,-0.2623,-0.265,-0.265,-0.265,-0.2621,-0.262,-0.2619,-0.2618,-0.2573,-0.2572,-0.2572,-0.2589,0,0,-0.2569,-0.2569,0,0,0,0,0,0,0,0,-0.2589,-0.2593,-0.2625,-0.2625,-0.2624,-0.2635,-0.2611,-0.2628,-0.2622,-0.262,-0.2619,-0.2618,-0.259,-0.2588,-0.2591,-0.2587,-0.2585,-0.2569,-0.2569,-0.2568,-0.2568,0,0,0,0,0,0,0,-0.2588,-0.2592,-0.2638,-0.2626,-0.2625,-0.2616,-0.2618,-0.2614,-0.2608,-0.262,-0.2618,-0.2624,-0.2589,-0.2592,-0.2589,-0.2585,-0.2569,-0.2568,-0.2568,-0.2568,-0.2589,-0.259,0,0,0,0,0,0,-0.2593,-0.2591,-0.2638,-0.2639,-0.2606,-0.2618,-0.262,-0.263,-0.2609,-0.2606,-0.2625,-0.2623,-0.2594,-0.259,-0.2588,-0.2607,-0.2568,-0.2568,-0.2567,-0.2588,-0.2589,-0.259,0,0,0,0,0,0,-0.2592,-0.2597,-0.2637,-0.2616,-0.2621,-0.2621,-0.2633,-0.2631,-0.263,-0.2615,-0.261,-0.2625,-0.2593,-0.2589,-0.2586,-0.2605,-0.2567,-0.2566,-0.2587,-0.2588,-0.259,-0.2646,0,0,0,0,0,0,-0.259,-0.2597,-0.2602,-0.2617,-0.2623,-0.2656,-0.2634,-0.2633,-0.2637,-0.2634,-0.2613,-0.2608,-0.2591,-0.2588,-0.2585,-0.2603,-0.2566,-0.2585,-0.2587,-0.2589,-0.2643,-0.2649,-0.2655,0,0,0,0,0,-0.2587,-0.2601,-0.2602,-0.2608,-0.2631,-0.2657,-0.2659,-0.2653,-0.2638,-0.2645,-0.2629,-0.2608,-0.2598,-0.2588,-0.2585,-0.2603,-0.2584,-0.2587,-0.2589,-0.264,-0.2648,-0.2655,0,0,0,0,0,0,-0.2571,-0.26,-0.2601,-0.2621,-0.264,-0.2653,-0.2658,-0.2656,-0.2651,-0.2643,-0.262,-0.2615,-0.2623,-0.2606,-0.2595,-0.2616,-0.2589,-0.2591,-0.2628,-0.2636,-0.2641,-0.2638,-0.2565,0,0,0,0,0,-0.2574,-0.2589,-0.2617,-0.263,-0.2641,-0.265,-0.2657,-0.2659,-0.266,-0.2656,-0.2643,-0.2631,-0.2633,-0.2627,-0.2624,-0.2633,-0.2609,-0.2644,-0.265,-0.2655,-0.2651,-0.2641,-0.2646,-0.2598,-0.2598,-0.2598,0,0,-0.2568,-0.2587,-0.2593,-0.2627,-0.2637,-0.2665,-0.265,-0.2668,-0.2686,-0.2653,-0.2661,-0.2653,-0.2641,-0.2654,-0.2655,-0.2639,-0.2655,-0.2658,-0.2662,-0.2655,-0.2644,-0.2649,-0.2653,-0.26,-0.2599,-0.2599,0,0,-0.2574,-0.2586,-0.2605,-0.2629,-0.2657,-0.267,-0.2678,-0.2697,-0.2698,-0.2714,-0.2697,-0.2697,-0.2695,-0.2692,-0.2691,-0.2727,-0.269,-0.2729,-0.2752,-0.2744,-0.2748,-0.275,-0.2722,-0.2721,-0.2729,-0.2729,-0.2729,0,-0.2565,-0.2594,-0.2613,-0.2645,-0.2663,-0.2675,-0.2703,-0.2718,-0.2731,-0.2734,-0.2721,-0.2724,-0.2715,-0.273,-0.2745,-0.2741,-0.2721,-0.2726,-0.2751,-0.2754,-0.2755,-0.2725,-0.2724,-0.2732,-0.2731,-0.2731,-0.2731,0,-0.2592,-0.2615,-0.2629,-0.2673,-0.27,-0.2721,-0.2755,-0.2771,-0.2773,-0.2782,-0.2793,-0.2783,-0.2779,-0.2786,-0.2777,-0.2792,-0.2769,-0.2763,-0.2731,-0.2764,-0.273,-0.2728,-0.2736,-0.2735,-0.2734,-0.2733,0,0,-0.2557,-0.2632,-0.2632,-0.2656,-0.2713,-0.2733,-0.2777,-0.281,-0.2824,-0.2836,-0.2845,-0.2858,-0.2841,-0.2839,-0.2828,-0.2823,-0.2823,-0.2801,-0.2799,-0.2769,-0.2788,-0.2711,-0.2701,-0.2822,-0.2822,-0.2822,-0.2758,0,-0.2563,-0.2618,-0.2658,-0.2702,-0.2731,-0.2769,-0.2809,-0.2843,-0.2858,-0.2872,-0.287,-0.2874,-0.2866,-0.2859,-0.2859,-0.2836,-0.2821,-0.284,-0.2764,-0.2761,-0.2687,-0.2698,-0.26,-0.2529,-0.2755,-0.2755,-0.2755,0,-0.2565,-0.2603,-0.2648,-0.2715,-0.2731,-0.2763,-0.2811,-0.2845,-0.2883,-0.2894,-0.2903,-0.2899,-0.2902,-0.2884,-0.2856,-0.2869,-0.283,-0.2807,-0.2804,-0.2709,-0.268,-0.2535,-0.2517,-0.2494,-0.2751,-0.2751,-0.2751,0,-0.2513,-0.2588,-0.2617,-0.264,-0.2725,-0.2747,-0.2785,-0.2839,-0.2862,-0.2893,-0.2904,-0.2914,-0.2899,-0.2879,-0.2837,-0.2847,-0.279,-0.2795,-0.2686,-0.2679,-0.2567,-0.255,-0.2512,-0.2762,-0.2762,-0.2762,-0.2762,0,-0.249,-0.2511,-0.2592,-0.2605,-0.264,-0.2712,-0.2743,-0.2786,-0.2839,-0.2855,-0.2895,-0.2899,-0.2897,-0.2869,-0.2837,-0.2747,-0.2786,-0.2681,-0.2658,-0.2583,-0.257,-0.2521,-0.2538,-0.276,-0.276,-0.2761,-0.2761,0,-0.242,-0.2475,-0.2511,-0.2592,-0.2614,-0.2632,-0.2714,-0.2735,-0.2798,-0.2818,-0.2827,-0.2875,-0.2838,-0.2816,-0.2767,-0.2722,-0.2605,-0.2614,-0.2515,-0.2481,-0.2359,-0.2383,-0.2288,-0.2224,-0.2486,-0.2484,-0.2482,0,-0.2388,-0.2398,-0.2474,-0.2486,-0.2516,-0.2562,-0.2593,-0.2689,-0.2714,-0.2793,-0.2789,-0.2787,-0.2757,-0.2666,-0.259,-0.25,-0.2494,-0.2357,-0.236,-0.2328,-0.2339,-0.2347,-0.2302,-0.2234,-0.223,-0.2227,-0.2224,0,-0.2307,-0.2332,-0.2355,-0.2392,-0.242,-0.2457,-0.2508,-0.2536,-0.2633,-0.266,-0.2677,-0.2665,-0.26,-0.2471,-0.2365,-0.2306,-0.2295,-0.2289,-0.2286,-0.2157,-0.2133,-0.2067,-0.2298,-0.2197,-0.22,-0.2202,-0.2203,-0.2204,-0.2223,-0.2224,-0.225,-0.2269,-0.2303,-0.2317,-0.2303,-0.2371,-0.2391,-0.2394,-0.2486,-0.2431,-0.2377,-0.2218,-0.216,-0.2023,-0.2077,-0.1965,-0.2001,-0.2014,-0.194,-0.2098,-0.1957,-0.1958,-0.1959,-0.196,-0.1961,0,-0.2105,-0.2113,-0.2127,-0.214,-0.2116,-0.2179,-0.2207,-0.2165,-0.2135,-0.2188,-0.2167,-0.2134,-0.201,-0.1979,-0.1857,-0.1769,-0.1734,-0.1729,-0.1734,-0.1704,-0.1857,-0.1833,-0.1622,-0.1622,-0.1622,-0.1622,-0.1622,-0.1622,-0.2038,-0.2001,-0.2012,-0.1928,-0.1933,-0.1851,-0.1831,-0.1796,-0.18,-0.1748,-0.1753,-0.1812,-0.1802,-0.1868,-0.1742,-0.1656,-0.1615,-0.155,-0.158,-0.1721,-0.1747,-0.1772,-0.1753,-0.1528,-0.1528,-0.136,-0.1359,-0.1358]},{"header":{"parameterUnit":"m.s-1","parameterCategory":2,"la1":30.2991,"la2":30.254,"lo1":-89.0895,"lo2":-89.0444,"dy":0.0017,"dx":0.0017,"nx":28,"ny":28,"refTime":"2024-03-03T09:00:00:Z","depth":"0","parameterNumber":3,"parameterNumberName":"V-component_of_CURRENTS"},"data":[0,0,0,0,0,0,0,0,0,0,0,0,0,0,0,0,0,0,0,0,0,0,0,0,0,0,0,0,0,0,0,0,0,0,0,0,0,0,0,0,0,0,0,0,0,0,0,0,0,0,0,0,0,0,0,0,0,0,-0.0294,-0.0293,0,-0.0227,-0.0227,-0.0226,-0.0179,-0.0179,-0.0178,-0.0178,-0.0082,-0.0079,-0.0077,0,0,0,0,0,0,0,0,0,0,0,0,0,-0.0337,-0.0336,-0.0294,-0.0293,-0.0292,-0.0228,-0.0227,-0.0226,-0.0179,-0.0179,-0.0178,-0.0178,-0.0082,-0.008,-0.0077,0,0,0,0,0,0,0,0,0,0,0,0,0,-0.0298,-0.0336,-0.0294,-0.0262,-0.0259,-0.0228,-0.0227,-0.0225,-0.0179,-0.0179,-0.0178,-0.0178,-0.0083,-0.008,-0.0077,-0.0064,0,0,-0.0066,-0.0064,0,0,0,0,0,0,0,0,-0.03,-0.0297,-0.0268,-0.0264,-0.026,-0.0212,-0.0206,-0.017,-0.0179,-0.0208,-0.0178,-0.0178,-0.0123,-0.0117,-0.0104,-0.0059,-0.0055,-0.0066,-0.0064,-0.0062,-0.0061,0,0,0,0,0,0,0,-0.0303,-0.0299,-0.0267,-0.0267,-0.0262,-0.0236,-0.023,-0.0199,-0.0168,-0.0206,-0.0202,-0.0197,-0.0121,-0.0108,-0.0101,-0.0054,-0.0066,-0.0063,-0.0061,-0.0059,0.0021,0.0021,0,0,0,0,0,0,-0.0316,-0.0302,-0.0269,-0.0265,-0.0281,-0.0236,-0.023,-0.0227,-0.0169,-0.016,-0.0197,-0.0195,-0.0114,-0.0106,-0.0098,-0.0074,-0.0062,-0.0059,-0.0057,0.0021,0.0021,0.0021,0,0,0,0,0,0,-0.0317,-0.0314,-0.0271,-0.0282,-0.0275,-0.0236,-0.0233,-0.0226,-0.0213,-0.0163,-0.0153,-0.0192,-0.0113,-0.0103,-0.0068,-0.007,-0.0057,-0.0054,0.0021,0.0021,0.0021,-0.0029,0,0,0,0,0,0,-0.0319,-0.0315,-0.032,-0.0283,-0.0275,-0.026,-0.0234,-0.0225,-0.0211,-0.0207,-0.0155,-0.0146,-0.0112,-0.0074,-0.0065,-0.0065,-0.0051,0.0021,0.0021,0.0021,-0.0028,-0.0031,-0.0034,0,0,0,0,0,-0.0321,-0.0332,-0.032,-0.0316,-0.0282,-0.0261,-0.0254,-0.0224,-0.0211,-0.021,-0.017,-0.0147,-0.0067,-0.0071,-0.006,-0.006,0.0021,0.0021,0.0021,-0.0026,-0.003,-0.0033,0,0,0,0,0,0,-0.0354,-0.0328,-0.0314,-0.0317,-0.0293,-0.0253,-0.0251,-0.0229,-0.0198,-0.0194,-0.0145,-0.0132,-0.0104,-0.0075,-0.0081,-0.0036,-0.002,-0.0017,-0.0059,-0.0063,-0.0066,-0.0078,-0.0049,0,0,0,0,0,-0.0365,-0.0366,-0.0333,-0.0336,-0.0327,-0.029,-0.0278,-0.0258,-0.0225,-0.0211,-0.0172,-0.0131,-0.0096,-0.0074,-0.0041,-0.0016,0.0022,-0.0008,-0.0011,-0.0014,-0.0016,0.004,0.0041,0.0022,0.0022,0.0022,0,0,-0.0378,-0.0365,-0.0365,-0.0343,-0.0323,-0.0318,-0.0282,-0.027,-0.0262,-0.0205,-0.0183,-0.0143,-0.0092,-0.0064,-0.0048,-0.0038,0.0012,-0.0014,-0.0017,-0.0017,0.004,0.0042,0.0044,0.0022,0.0022,0.0022,0,0,-0.0413,-0.0395,-0.041,-0.0394,-0.0371,-0.0344,-0.0344,-0.0306,-0.0284,-0.0258,-0.0214,-0.0173,-0.0124,-0.0081,-0.0055,-0.0054,-0.0009,-0.0047,-0.0067,-0.0013,-0.0011,-0.0009,0.004,0.0048,-0.0045,-0.0045,-0.0045,0,-0.0433,-0.0446,-0.0411,-0.0421,-0.0412,-0.036,-0.037,-0.034,-0.0295,-0.0274,-0.026,-0.0172,-0.0131,-0.0082,-0.0081,-0.0061,-0.0025,-0.0059,-0.0017,-0.0014,-0.0011,0.0039,0.0047,-0.0048,-0.0047,-0.0047,-0.0047,0,-0.0478,-0.0486,-0.0494,-0.0486,-0.0469,-0.047,-0.0424,-0.0402,-0.0368,-0.033,-0.0279,-0.0215,-0.0161,-0.0141,-0.011,-0.0067,-0.0048,-0.0031,-0.0011,-0.0012,0.0041,0.005,-0.0051,-0.005,-0.0049,-0.0049,0,0,-0.0527,-0.0528,-0.0531,-0.0541,-0.0505,-0.0499,-0.0475,-0.0438,-0.042,-0.0364,-0.0331,-0.0262,-0.0218,-0.0185,-0.0134,-0.0084,-0.003,-0.0054,-0.005,-0.001,0.0088,0.0133,0.0148,-0.0007,-0.0005,-0.0004,0.0116,0,-0.0575,-0.0614,-0.0593,-0.0618,-0.0628,-0.0574,-0.0554,-0.0508,-0.0455,-0.0408,-0.0325,-0.0279,-0.0236,-0.0209,-0.0151,-0.0057,-0.0006,-0.0064,0.0088,0.0093,0.0129,0.016,0.0184,0.0296,0.0126,0.0127,0.0128,0,-0.0627,-0.0644,-0.0682,-0.068,-0.0679,-0.0681,-0.0635,-0.0612,-0.0522,-0.0478,-0.0406,-0.0338,-0.0248,-0.0218,-0.0059,-0.0098,-0.0015,0.0057,0.0063,0.013,0.0156,0.0271,0.0321,0.0441,0.0144,0.0143,0.0141,0,-0.0681,-0.0706,-0.074,-0.0741,-0.0725,-0.0728,-0.071,-0.0635,-0.0609,-0.0521,-0.0484,-0.0369,-0.0305,-0.0186,-0.0031,-0.0046,0.0147,0.0148,0.0266,0.027,0.0334,0.0341,0.0514,0.0251,0.025,0.025,0.025,0,-0.0739,-0.0767,-0.0773,-0.0796,-0.0828,-0.0786,-0.0789,-0.0751,-0.0676,-0.0637,-0.0529,-0.0463,-0.0295,-0.0159,-0.0033,0.0161,0.0151,0.0274,0.031,0.0317,0.0321,0.0463,0.0506,0.0254,0.0253,0.0253,0.0252,0,-0.0795,-0.0799,-0.0845,-0.0853,-0.0861,-0.0881,-0.0862,-0.085,-0.0771,-0.0714,-0.0689,-0.0524,-0.0339,-0.0159,0.0053,0.0163,0.0423,0.0399,0.0395,0.0429,0.0636,0.0674,0.0887,0.0965,0.0546,0.0548,0.0549,0,-0.0829,-0.0858,-0.0903,-0.0935,-0.0948,-0.0966,-0.097,-0.091,-0.0886,-0.0741,-0.0716,-0.0527,-0.0371,-0.0032,0.0196,0.0439,0.0525,0.0586,0.0562,0.0668,0.0738,0.0762,0.0813,0.0628,0.063,0.0632,0.0633,0,-0.0888,-0.0905,-0.0944,-0.1013,-0.1045,-0.1069,-0.107,-0.1064,-0.0967,-0.0887,-0.0739,-0.0598,-0.0256,0.0055,0.0369,0.0503,0.0682,0.0628,0.075,0.0832,0.0861,0.0945,0.0521,0.0649,0.0647,0.0646,0.0645,0.0644,-0.0927,-0.0975,-0.1028,-0.1089,-0.1127,-0.1155,-0.1161,-0.1122,-0.1063,-0.0913,-0.0769,-0.0521,-0.0076,0.0386,0.0552,0.0876,0.0834,0.095,0.0993,0.1011,0.1079,0.0687,0.0845,0.0845,0.0844,0.0844,0.0844,0,-0.0971,-0.1026,-0.1096,-0.1164,-0.1208,-0.1208,-0.1208,-0.117,-0.1086,-0.0911,-0.0728,-0.0232,0.0204,0.0594,0.1075,0.1236,0.1258,0.1298,0.1338,0.1376,0.1048,0.1043,0.1238,0.1238,0.1238,0.1238,0.1237,0.1237,-0.0997,-0.1077,-0.1117,-0.1208,-0.125,-0.1271,-0.1262,-0.1175,-0.1044,-0.0737,-0.045,-0.0212,0.0346,0.1132,0.1558,0.1576,0.1707,0.168,0.1762,0.1523,0.1493,0.1465,0.1472,0.1754,0.1755,0.2073,0.2076,0.2078]}],[{"header":{"parameterUnit":"m.s-1","parameterCategory":2,"la1":30.2991,"la2":30.254,"lo1":-89.0895,"lo2":-89.0444,"dy":0.0017,"dx":0.0017,"nx":28,"ny":28,"refTime":"2024-03-03T09:00:00:Z","depth":"2","parameterNumber":2,"parameterNumberName":"U-component_of_CURRENTS"},"data":[0,0,0,0,0,0,0,0,0,0,0,0,0,0,0,0,0,0,0,0,0,0,0,0,0,0,0,0,0,0,0,0,0,0,0,0,0,0,0,0,0,0,0,0,0,0,0,0,0,0,0,0,0,0,0,0,0,0,-0.2252,-0.2252,0,-0.2271,-0.2271,-0.2271,-0.2253,-0.2252,-0.2252,-0.2251,-0.222,-0.2219,-0.2219,0,0,0,0,0,0,0,0,0,0,0,0,0,-0.2194,-0.2195,-0.2252,-0.2252,-0.2253,-0.2271,-0.2271,-0.2271,-0.2253,-0.2252,-0.2252,-0.2251,-0.222,-0.2219,-0.2219,0,0,0,0,0,0,0,0,0,0,0,0,0,-0.2215,-0.2195,-0.2252,-0.2248,-0.2248,-0.2271,-0.2271,-0.2271,-0.2253,-0.2252,-0.2252,-0.2251,-0.222,-0.2219,-0.2219,-0.2231,0,0,-0.2217,-0.2217,0,0,0,0,0,0,0,0,-0.2213,-0.2216,-0.2248,-0.2248,-0.2248,-0.2261,-0.2239,-0.2256,-0.2253,-0.2249,-0.2251,-0.225,-0.2231,-0.2229,-0.2232,-0.2229,-0.2228,-0.2217,-0.2217,-0.2216,-0.2216,0,0,0,0,0,0,0,-0.2212,-0.2215,-0.2257,-0.2248,-0.2248,-0.2243,-0.2245,-0.2242,-0.2241,-0.2249,-0.2248,-0.2254,-0.223,-0.2233,-0.2231,-0.2227,-0.2217,-0.2217,-0.2216,-0.2216,-0.2241,-0.2242,0,0,0,0,0,0,-0.2216,-0.2214,-0.2256,-0.2258,-0.2231,-0.2245,-0.2247,-0.2255,-0.2242,-0.224,-0.2255,-0.2253,-0.2234,-0.2232,-0.223,-0.2256,-0.2216,-0.2216,-0.2216,-0.224,-0.2241,-0.2242,0,0,0,0,0,0,-0.2214,-0.2219,-0.2256,-0.2238,-0.2242,-0.2247,-0.2257,-0.2256,-0.2261,-0.2248,-0.2244,-0.226,-0.2233,-0.223,-0.2233,-0.2254,-0.2216,-0.2215,-0.2239,-0.224,-0.2242,-0.2299,0,0,0,0,0,0,-0.2213,-0.2219,-0.2225,-0.2238,-0.2244,-0.2275,-0.2258,-0.2257,-0.2267,-0.2265,-0.2251,-0.2247,-0.2232,-0.2234,-0.2233,-0.2252,-0.2215,-0.2238,-0.224,-0.2241,-0.2296,-0.2303,-0.2308,0,0,0,0,0,-0.2211,-0.2223,-0.2225,-0.2231,-0.2253,-0.2276,-0.2279,-0.2277,-0.2268,-0.2276,-0.2266,-0.2248,-0.2245,-0.2235,-0.2233,-0.2252,-0.2237,-0.2239,-0.2241,-0.2294,-0.2301,-0.2308,0,0,0,0,0,0,-0.2199,-0.2223,-0.2226,-0.2244,-0.2262,-0.2274,-0.2282,-0.2283,-0.2283,-0.2278,-0.226,-0.2256,-0.2268,-0.2253,-0.2242,-0.2265,-0.2238,-0.224,-0.2279,-0.2286,-0.2292,-0.229,-0.2214,0,0,0,0,0,-0.2202,-0.2216,-0.224,-0.2253,-0.2265,-0.2275,-0.2283,-0.2287,-0.2291,-0.229,-0.2282,-0.2275,-0.2277,-0.2275,-0.2273,-0.2284,-0.2261,-0.2296,-0.2302,-0.2307,-0.2304,-0.2295,-0.23,-0.225,-0.225,-0.225,0,0,-0.2199,-0.2215,-0.2221,-0.2252,-0.2263,-0.2289,-0.2277,-0.2297,-0.2316,-0.2287,-0.2302,-0.2296,-0.2286,-0.2301,-0.2305,-0.2289,-0.2309,-0.231,-0.2314,-0.2308,-0.2298,-0.2303,-0.2307,-0.2251,-0.2251,-0.2251,0,0,-0.2206,-0.2218,-0.2236,-0.2258,-0.2286,-0.2298,-0.2307,-0.2327,-0.2332,-0.2352,-0.2338,-0.2342,-0.2344,-0.2341,-0.234,-0.2377,-0.2344,-0.238,-0.2405,-0.2398,-0.2402,-0.2405,-0.238,-0.2381,-0.238,-0.238,-0.238,0,-0.2201,-0.2226,-0.2244,-0.2273,-0.229,-0.2305,-0.2331,-0.2348,-0.2365,-0.2371,-0.2362,-0.2371,-0.2363,-0.238,-0.2395,-0.2391,-0.2374,-0.238,-0.2405,-0.2408,-0.241,-0.2384,-0.2384,-0.2383,-0.2383,-0.2383,-0.2382,0,-0.2226,-0.2248,-0.2261,-0.2302,-0.2328,-0.235,-0.2382,-0.2402,-0.2409,-0.2419,-0.2437,-0.243,-0.243,-0.2437,-0.2428,-0.2446,-0.2424,-0.2416,-0.2386,-0.2418,-0.2389,-0.2388,-0.2388,-0.2387,-0.2386,-0.2385,0,0,-0.2198,-0.2265,-0.2266,-0.2288,-0.2342,-0.2361,-0.2406,-0.2439,-0.2456,-0.2474,-0.2489,-0.2503,-0.2492,-0.249,-0.2481,-0.2478,-0.2482,-0.2457,-0.2455,-0.243,-0.2453,-0.2379,-0.237,-0.248,-0.248,-0.248,-0.2426,0,-0.2204,-0.2255,-0.2291,-0.2334,-0.2361,-0.2398,-0.2437,-0.2472,-0.2491,-0.2511,-0.2513,-0.2523,-0.2516,-0.2514,-0.2515,-0.2493,-0.2482,-0.2497,-0.2427,-0.2424,-0.2353,-0.2367,-0.2208,-0.2141,-0.2424,-0.2424,-0.2424,0,-0.2207,-0.2241,-0.2285,-0.2348,-0.2363,-0.2395,-0.2445,-0.2479,-0.252,-0.2536,-0.2551,-0.255,-0.2558,-0.2541,-0.2519,-0.2529,-0.2495,-0.2473,-0.247,-0.2377,-0.2348,-0.2155,-0.2127,-0.2421,-0.2421,-0.2421,-0.2422,0,-0.2161,-0.2231,-0.2259,-0.2281,-0.236,-0.2385,-0.2423,-0.2478,-0.2502,-0.2541,-0.2555,-0.2569,-0.2563,-0.2544,-0.2505,-0.2513,-0.2464,-0.2466,-0.2362,-0.2356,-0.2193,-0.2172,-0.2437,-0.2437,-0.2437,-0.2437,-0.2437,0,-0.2142,-0.2163,-0.2239,-0.2252,-0.2288,-0.2356,-0.2391,-0.2435,-0.249,-0.2508,-0.2552,-0.2557,-0.2563,-0.2539,-0.2508,-0.2424,-0.2462,-0.2361,-0.2338,-0.2208,-0.219,-0.2412,-0.241,-0.2435,-0.2436,-0.2436,-0.2436,0,-0.2079,-0.213,-0.2165,-0.2243,-0.2265,-0.2286,-0.2368,-0.2389,-0.2456,-0.2479,-0.249,-0.254,-0.2509,-0.2494,-0.2449,-0.2406,-0.2347,-0.2303,-0.2144,-0.2103,-0.2245,-0.2247,-0.2189,-0.2186,-0.2183,-0.2181,-0.2179,0,-0.205,-0.206,-0.2133,-0.2146,-0.2177,-0.2225,-0.2254,-0.2349,-0.2371,-0.2454,-0.2448,-0.2456,-0.2425,-0.2345,-0.2274,-0.219,-0.2257,-0.1994,-0.1982,-0.2236,-0.222,-0.2226,-0.2231,-0.1786,-0.1781,-0.1777,-0.1774,0,-0.1977,-0.2002,-0.2024,-0.2058,-0.2088,-0.2122,-0.2171,-0.2195,-0.229,-0.2314,-0.2327,-0.2316,-0.2264,-0.2109,-0.2018,-0.1952,-0.2001,-0.1909,-0.2203,-0.1882,-0.1854,-0.1839,-0.1858,-0.1738,-0.1742,-0.1745,-0.1747,-0.1748,-0.1902,-0.1902,-0.1926,-0.1945,-0.1979,-0.1987,-0.1969,-0.2028,-0.2041,-0.2037,-0.2127,-0.205,-0.204,-0.1815,-0.1717,-0.1641,-0.1774,-0.1691,-0.1705,-0.1722,-0.1693,-0.1663,-0.1505,-0.1507,-0.1509,-0.1511,-0.1512,0,-0.1794,-0.18,-0.1811,-0.1821,-0.1797,-0.1859,-0.1876,-0.1826,-0.1785,-0.1818,-0.1794,-0.1618,-0.1521,-0.1513,-0.1347,-0.1313,-0.1311,-0.1252,-0.1252,-0.1288,-0.1319,-0.1271,-0.0971,-0.0969,-0.0968,-0.0966,0,0,-0.1732,-0.1694,-0.17,-0.1617,-0.1623,-0.1541,-0.1516,-0.1466,-0.1451,-0.1364,-0.1326,-0.143,-0.1474,-0.1227,-0.1165,-0.104,-0.1153,-0.0988,-0.1422,-0.1458,-0.1487,-0.1571,-0.1536,0,0,0,0,0]},{"header":{"parameterUnit":"m.s-1","parameterCategory":2,"la1":30.2991,"la2":30.254,"lo1":-89.0895,"lo2":-89.0444,"dy":0.0017,"dx":0.0017,"nx":28,"ny":28,"refTime":"2024-03-03T09:00:00:Z","depth":"2","parameterNumber":3,"parameterNumberName":"V-component_of_CURRENTS"},"data":[0,0,0,0,0,0,0,0,0,0,0,0,0,0,0,0,0,0,0,0,0,0,0,0,0,0,0,0,0,0,0,0,0,0,0,0,0,0,0,0,0,0,0,0,0,0,0,0,0,0,0,0,0,0,0,0,0,0,-0.0315,-0.0314,0,-0.0257,-0.0256,-0.0255,-0.0215,-0.0214,-0.0214,-0.0214,-0.0128,-0.0126,-0.0124,0,0,0,0,0,0,0,0,0,0,0,0,0,-0.035,-0.0349,-0.0315,-0.0314,-0.0313,-0.0257,-0.0256,-0.0255,-0.0215,-0.0214,-0.0214,-0.0214,-0.0129,-0.0127,-0.0124,0,0,0,0,0,0,0,0,0,0,0,0,0,-0.0317,-0.0349,-0.0315,-0.0287,-0.0284,-0.0257,-0.0256,-0.0255,-0.0215,-0.0214,-0.0214,-0.0214,-0.013,-0.0127,-0.0124,-0.0112,0,0,-0.0114,-0.0113,0,0,0,0,0,0,0,0,-0.0319,-0.0315,-0.0292,-0.0289,-0.0285,-0.0243,-0.0237,-0.0206,-0.0215,-0.024,-0.0214,-0.0213,-0.0165,-0.0159,-0.0148,-0.0108,-0.0105,-0.0114,-0.0112,-0.0111,-0.011,0,0,0,0,0,0,0,-0.0321,-0.0317,-0.0291,-0.0291,-0.0287,-0.0263,-0.0259,-0.0231,-0.0204,-0.0238,-0.0235,-0.023,-0.0163,-0.0151,-0.0146,-0.0103,-0.0114,-0.0111,-0.011,-0.0108,-0.0037,-0.0037,0,0,0,0,0,0,-0.0332,-0.032,-0.0293,-0.0289,-0.0302,-0.0263,-0.0258,-0.0256,-0.0205,-0.0197,-0.023,-0.0228,-0.0157,-0.0149,-0.0143,-0.0119,-0.0111,-0.0108,-0.0106,-0.0037,-0.0037,-0.0037,0,0,0,0,0,0,-0.0333,-0.0331,-0.0295,-0.0303,-0.0297,-0.0263,-0.0262,-0.0256,-0.0244,-0.02,-0.0191,-0.0226,-0.0156,-0.0147,-0.0116,-0.0116,-0.0107,-0.0104,-0.0037,-0.0037,-0.0037,-0.0077,0,0,0,0,0,0,-0.0335,-0.0331,-0.0336,-0.0305,-0.0297,-0.0285,-0.0262,-0.0255,-0.0242,-0.0239,-0.0193,-0.0185,-0.0155,-0.012,-0.0113,-0.0112,-0.0102,-0.0037,-0.0037,-0.0037,-0.0076,-0.0078,-0.0081,0,0,0,0,0,-0.0336,-0.0347,-0.0337,-0.0334,-0.0305,-0.0285,-0.028,-0.0253,-0.0242,-0.0241,-0.0206,-0.0186,-0.0114,-0.0118,-0.0109,-0.0107,-0.0037,-0.0037,-0.0037,-0.0075,-0.0078,-0.0081,0,0,0,0,0,0,-0.0365,-0.0343,-0.0331,-0.0335,-0.0314,-0.0279,-0.0277,-0.0258,-0.023,-0.0227,-0.0183,-0.0172,-0.0147,-0.0121,-0.0126,-0.0086,-0.0074,-0.0072,-0.0105,-0.0108,-0.011,-0.0121,-0.0099,0,0,0,0,0,-0.0374,-0.0376,-0.0348,-0.0351,-0.0343,-0.0311,-0.0301,-0.0283,-0.0253,-0.0241,-0.0207,-0.0171,-0.014,-0.012,-0.0091,-0.0067,-0.0035,-0.0061,-0.0063,-0.0065,-0.0067,-0.0015,-0.0013,-0.0037,-0.0037,-0.0037,0,0,-0.0386,-0.0375,-0.0376,-0.0357,-0.034,-0.0335,-0.0304,-0.0294,-0.0285,-0.0236,-0.0215,-0.018,-0.0136,-0.011,-0.0096,-0.0087,-0.0042,-0.0065,-0.0067,-0.0068,-0.0015,-0.0013,-0.001,-0.0037,-0.0037,-0.0037,0,0,-0.0417,-0.0402,-0.0415,-0.0401,-0.0381,-0.0357,-0.0357,-0.0324,-0.0304,-0.028,-0.0242,-0.0204,-0.0162,-0.0123,-0.01,-0.0097,-0.0059,-0.0092,-0.0108,-0.0057,-0.0055,-0.0052,-0.001,-0.0003,-0.009,-0.009,-0.009,0,-0.0433,-0.0445,-0.0415,-0.0424,-0.0416,-0.0371,-0.038,-0.0353,-0.0313,-0.0294,-0.0282,-0.0204,-0.0166,-0.0122,-0.012,-0.0102,-0.0072,-0.0101,-0.006,-0.0057,-0.0054,-0.0011,-0.0003,-0.0092,-0.0092,-0.0091,-0.0091,0,-0.0472,-0.048,-0.0486,-0.048,-0.0465,-0.0466,-0.0425,-0.0406,-0.0376,-0.0342,-0.0296,-0.0238,-0.019,-0.0172,-0.0144,-0.0103,-0.0088,-0.0073,-0.0055,-0.0054,-0.0009,0.0,-0.0095,-0.0094,-0.0093,-0.0093,0,0,-0.0514,-0.0516,-0.0519,-0.0528,-0.0496,-0.0491,-0.047,-0.0437,-0.0422,-0.037,-0.0341,-0.0276,-0.0238,-0.0208,-0.0162,-0.0114,-0.0063,-0.0088,-0.0085,-0.005,0.0044,0.0077,0.009,-0.0041,-0.0039,-0.0038,0.0065,0,-0.0556,-0.059,-0.0572,-0.0595,-0.0604,-0.0557,-0.054,-0.0499,-0.0453,-0.0411,-0.0334,-0.0293,-0.0253,-0.0229,-0.0173,-0.0089,-0.0041,-0.0093,0.0041,0.0045,0.0072,0.0101,0.0073,0.0166,0.0074,0.0076,0.0077,0,-0.0601,-0.0616,-0.065,-0.0652,-0.0651,-0.0654,-0.0616,-0.0595,-0.0516,-0.0477,-0.0411,-0.0348,-0.0263,-0.0235,-0.0089,-0.0125,-0.0049,0.0017,0.0023,0.0073,0.0095,0.0152,0.0186,0.0092,0.0091,0.009,0.0089,0,-0.0648,-0.0671,-0.0703,-0.0704,-0.0693,-0.0697,-0.0683,-0.0618,-0.0597,-0.0516,-0.0487,-0.0377,-0.0319,-0.0208,-0.0067,-0.0079,0.0095,0.0098,0.0199,0.0202,0.0216,0.0218,0.0195,0.0195,0.0194,0.0194,0.0194,0,-0.0699,-0.0726,-0.0734,-0.0755,-0.0788,-0.075,-0.0759,-0.0726,-0.0661,-0.0632,-0.0528,-0.0473,-0.031,-0.0187,-0.0071,0.0101,0.0097,0.0206,0.0238,0.0201,0.0201,0.0164,0.0159,0.0198,0.0197,0.0196,0.0196,0,-0.0749,-0.0753,-0.0797,-0.0808,-0.0818,-0.0839,-0.0828,-0.082,-0.0753,-0.0708,-0.0685,-0.0535,-0.0368,-0.0198,-0.0002,0.0099,0.0255,0.0311,0.0256,0.028,0.0325,0.0317,0.0433,0.0436,0.0437,0.0439,0.044,0,-0.0779,-0.0806,-0.0853,-0.0884,-0.0899,-0.0919,-0.0927,-0.0877,-0.086,-0.0741,-0.0722,-0.055,-0.0414,-0.0107,0.0104,0.0326,0.0316,0.0415,0.0393,0.0334,0.0353,0.0342,0.0331,0.0394,0.0394,0.0395,0.0396,0,-0.0832,-0.085,-0.0887,-0.0956,-0.099,-0.1018,-0.1025,-0.1024,-0.0943,-0.0879,-0.0757,-0.0635,-0.0331,-0.007,0.0218,0.0334,0.0379,0.0436,0.0409,0.0334,0.0304,0.032,0.031,0.0401,0.0401,0.04,0.04,0.04,-0.0868,-0.0913,-0.0965,-0.1027,-0.1067,-0.11,-0.1109,-0.1081,-0.1037,-0.091,-0.0793,-0.0581,-0.0329,0.0091,0.0296,0.0474,0.0462,0.0498,0.0493,0.0488,0.0461,0.0436,0.0553,0.0553,0.0553,0.0554,0.0554,0,-0.091,-0.096,-0.1029,-0.1098,-0.1144,-0.115,-0.1157,-0.1125,-0.1058,-0.0909,-0.0756,-0.047,-0.0172,0.0082,0.0381,0.0556,0.0525,0.0569,0.05,0.0494,0.0488,0.0459,0.0552,0.0552,0.0553,0.0553,0,0,-0.0933,-0.1008,-0.1047,-0.1139,-0.1183,-0.1211,-0.1207,-0.1131,-0.102,-0.085,-0.0683,-0.0465,-0.0158,0.0054,0.0277,0.0431,0.0411,0.0433,0.0416,0.0302,0.0295,0.0429,0.0375,0,0,0,0,0]}],[{"header":{"parameterUnit":"m.s-1","parameterCategory":2,"la1":30.2991,"la2":30.254,"lo1":-89.0895,"lo2":-89.0444,"dy":0.0017,"dx":0.0017,"nx":28,"ny":28,"refTime":"2024-03-03T09:00:00:Z","depth":"4","parameterNumber":2,"parameterNumberName":"U-component_of_CURRENTS"},"data":[0,0,0,0,0,0,0,0,0,0,0,0,0,0,0,0,0,0,0,0,0,0,0,0,0,0,0,0,0,0,0,0,0,0,0,0,0,0,0,0,0,0,0,0,0,0,0,0,0,0,0,0,0,0,0,0,0,0,-0.1541,-0.1541,0,-0.1594,-0.1594,-0.1595,-0.1629,-0.163,-0.163,-0.163,-0.1669,-0.167,-0.167,0,0,0,0,0,0,0,0,0,0,0,0,0,-0.1465,-0.1466,-0.1541,-0.1541,-0.1542,-0.1594,-0.1594,-0.1595,-0.1629,-0.163,-0.163,-0.1631,-0.1669,-0.1669,-0.167,0,0,0,0,0,0,0,0,0,0,0,0,0,-0.1505,-0.1467,-0.1541,-0.1567,-0.157,-0.1594,-0.1594,-0.1595,-0.1629,-0.163,-0.163,-0.1631,-0.1668,-0.1669,-0.167,-0.1666,0,0,-0.1673,-0.1674,0,0,0,0,0,0,0,0,-0.1502,-0.1507,-0.1562,-0.1565,-0.1569,-0.1607,-0.1582,-0.1618,-0.1629,-0.1605,-0.163,-0.1631,-0.1647,-0.165,-0.1657,-0.1667,-0.1669,-0.1674,-0.1674,-0.1675,-0.1675,0,0,0,0,0,0,0,-0.15,-0.1505,-0.156,-0.1563,-0.1567,-0.1575,-0.1581,-0.1589,-0.1621,-0.1607,-0.161,-0.1618,-0.1649,-0.1656,-0.1658,-0.167,-0.1674,-0.1674,-0.1675,-0.1675,-0.1745,-0.1746,0,0,0,0,0,0,-0.1496,-0.1503,-0.1558,-0.1562,-0.1538,-0.1576,-0.1583,-0.1593,-0.1621,-0.1627,-0.1618,-0.162,-0.1654,-0.1657,-0.1659,-0.1724,-0.1675,-0.1676,-0.1676,-0.1744,-0.1745,-0.1747,0,0,0,0,0,0,-0.1494,-0.1501,-0.1556,-0.1534,-0.1542,-0.1577,-0.1588,-0.1594,-0.1628,-0.163,-0.1635,-0.165,-0.1654,-0.1658,-0.1692,-0.1723,-0.1676,-0.1677,-0.1742,-0.1744,-0.1746,-0.181,0,0,0,0,0,0,-0.1492,-0.15,-0.1519,-0.1534,-0.1544,-0.1589,-0.1588,-0.1594,-0.1631,-0.1635,-0.1658,-0.1661,-0.1655,-0.1691,-0.1693,-0.1724,-0.1678,-0.1741,-0.1743,-0.1746,-0.1806,-0.1813,-0.182,0,0,0,0,0,-0.1489,-0.1508,-0.1519,-0.1527,-0.1565,-0.1591,-0.1597,-0.1621,-0.1632,-0.1653,-0.167,-0.1662,-0.1707,-0.1693,-0.1695,-0.1727,-0.174,-0.1743,-0.1745,-0.1803,-0.1812,-0.182,0,0,0,0,0,0,-0.1487,-0.1514,-0.1527,-0.1555,-0.1581,-0.1598,-0.1623,-0.1637,-0.1667,-0.1679,-0.1678,-0.1682,-0.1723,-0.1716,-0.17,-0.1753,-0.1722,-0.1725,-0.1765,-0.1773,-0.178,-0.1775,-0.1679,0,0,0,0,0,-0.1494,-0.1518,-0.1542,-0.1568,-0.1584,-0.1609,-0.1628,-0.1646,-0.1668,-0.1684,-0.17,-0.1716,-0.1732,-0.1746,-0.1757,-0.1787,-0.1764,-0.1808,-0.1815,-0.1821,-0.1819,-0.1815,-0.1821,-0.1756,-0.1756,-0.1756,0,0,-0.1501,-0.152,-0.1535,-0.157,-0.1593,-0.1623,-0.1623,-0.1661,-0.1692,-0.1681,-0.1736,-0.1744,-0.1746,-0.1781,-0.1798,-0.1782,-0.1829,-0.1825,-0.183,-0.1824,-0.1818,-0.1825,-0.183,-0.1758,-0.1757,-0.1757,0,0,-0.1517,-0.1545,-0.1569,-0.1594,-0.1636,-0.1651,-0.1669,-0.1705,-0.173,-0.1775,-0.1776,-0.1803,-0.1833,-0.1838,-0.1842,-0.1892,-0.1866,-0.1904,-0.1936,-0.1933,-0.1938,-0.1942,-0.1923,-0.1924,-0.1907,-0.1907,-0.1907,0,-0.1528,-0.1557,-0.1581,-0.1611,-0.1637,-0.1668,-0.17,-0.173,-0.1775,-0.1795,-0.1803,-0.185,-0.1857,-0.1886,-0.1908,-0.1908,-0.1896,-0.1905,-0.1942,-0.1945,-0.1948,-0.1927,-0.1928,-0.191,-0.191,-0.191,-0.1909,0,-0.1553,-0.1589,-0.1607,-0.1655,-0.1688,-0.1721,-0.1762,-0.1803,-0.1837,-0.1859,-0.1909,-0.1919,-0.1941,-0.1955,-0.1949,-0.1981,-0.1962,-0.1951,-0.1919,-0.1959,-0.1934,-0.1934,-0.1915,-0.1914,-0.1913,-0.1912,0,0,-0.1534,-0.161,-0.1619,-0.1649,-0.1714,-0.1738,-0.1799,-0.1848,-0.1883,-0.1931,-0.1967,-0.2004,-0.201,-0.2014,-0.2015,-0.2019,-0.2035,-0.2002,-0.2,-0.1979,-0.2021,-0.1891,-0.1878,-0.2035,-0.2036,-0.2036,-0.1994,0,-0.1546,-0.1604,-0.1643,-0.1705,-0.1735,-0.1788,-0.1839,-0.1891,-0.1932,-0.1976,-0.1998,-0.2033,-0.2033,-0.2048,-0.2056,-0.2042,-0.2039,-0.2047,-0.1988,-0.1985,-0.1862,-0.1875,-0.2038,-0.1994,-0.1994,-0.1994,-0.1994,0,-0.1548,-0.1588,-0.1648,-0.1726,-0.1746,-0.1794,-0.187,-0.1916,-0.198,-0.2014,-0.2053,-0.2068,-0.2094,-0.2083,-0.2077,-0.2086,-0.2059,-0.2041,-0.2039,-0.1892,-0.1855,-0.1945,-0.1993,-0.1993,-0.1993,-0.1993,-0.1993,0,-0.15,-0.1586,-0.1634,-0.1662,-0.1756,-0.1801,-0.1854,-0.1928,-0.1964,-0.2033,-0.206,-0.2096,-0.211,-0.2099,-0.2072,-0.2081,-0.2046,-0.2046,-0.19,-0.189,-0.1993,-0.1989,-0.2028,-0.2028,-0.2029,-0.2029,-0.2029,0,-0.1474,-0.1516,-0.1622,-0.1645,-0.1706,-0.1783,-0.1847,-0.1904,-0.1978,-0.2003,-0.2071,-0.208,-0.2116,-0.2102,-0.2077,-0.1977,-0.2046,-0.1896,-0.1868,-0.2021,-0.2021,-0.1993,-0.1989,-0.2027,-0.2027,-0.2028,-0.2028,0,-0.1406,-0.1479,-0.1538,-0.1648,-0.1684,-0.1726,-0.1837,-0.1869,-0.1956,-0.1988,-0.201,-0.2072,-0.2047,-0.2052,-0.2022,-0.1957,-0.1892,-0.1838,-0.1991,-0.1974,-0.1739,-0.174,-0.1669,-0.1664,-0.166,-0.1656,-0.1653,0,-0.1374,-0.1398,-0.1518,-0.155,-0.1605,-0.1684,-0.1727,-0.184,-0.1862,-0.1955,-0.1943,-0.1971,-0.1988,-0.1835,-0.1867,-0.1794,-0.1772,-0.1731,-0.1744,-0.172,-0.1702,-0.1709,-0.1715,-0.1647,-0.1645,-0.1644,-0.1643,0,-0.1298,-0.1356,-0.1399,-0.1465,-0.1525,-0.1577,-0.1646,-0.1655,-0.1757,-0.186,-0.1819,-0.1798,-0.1764,-0.1733,-0.1684,-0.1639,-0.1758,-0.1686,-0.1695,-0.1707,-0.1693,-0.168,-0.1691,-0.1629,-0.1631,-0.1632,-0.1633,0,-0.1237,-0.1252,-0.1311,-0.1355,-0.1423,-0.1433,-0.1497,-0.1514,-0.1554,-0.1661,-0.1641,-0.1674,-0.1737,-0.165,-0.1608,-0.1549,-0.1528,-0.148,-0.15,-0.1516,-0.1486,-0.1446,-0.1271,0,0,0,0,0,-0.1163,-0.1159,-0.1191,-0.1228,-0.1289,-0.1321,-0.1413,-0.1477,-0.1585,-0.1507,-0.1569,-0.1529,-0.1475,-0.1498,-0.1401,-0.1536,-0.1534,-0.1419,-0.1491,-0.1547,-0.1564,-0.1542,0,0,0,0,0,0,-0.1111,-0.1135,-0.1143,-0.1101,-0.1099,-0.1144,-0.1197,-0.1278,-0.1244,-0.1361,-0.1333,-0.1425,-0.1388,-0.1489,-0.1362,-0.1367,-0.1379,-0.1451,-0.1446,-0.1537,-0.1553,-0.1567,-0.155,0,0,0,0,0]},{"header":{"parameterUnit":"m.s-1","parameterCategory":2,"la1":30.2991,"la2":30.254,"lo1":-89.0895,"lo2":-89.0444,"dy":0.0017,"dx":0.0017,"nx":28,"ny":28,"refTime":"2024-03-03T09:00:00:Z","depth":"4","parameterNumber":3,"parameterNumberName":"V-component_of_CURRENTS"},"data":[0,0,0,0,0,0,0,0,0,0,0,0,0,0,0,0,0,0,0,0,0,0,0,0,0,0,0,0,0,0,0,0,0,0,0,0,0,0,0,0,0,0,0,0,0,0,0,0,0,0,0,0,0,0,0,0,0,0,-0.0248,-0.0248,0,-0.0213,-0.0213,-0.0213,-0.019,-0.019,-0.019,-0.0189,-0.0131,-0.0129,-0.0128,0,0,0,0,0,0,0,0,0,0,0,0,0,-0.0263,-0.0263,-0.0248,-0.0248,-0.0247,-0.0214,-0.0213,-0.0212,-0.019,-0.019,-0.0189,-0.0189,-0.0131,-0.013,-0.0128,0,0,0,0,0,0,0,0,0,0,0,0,0,-0.0245,-0.0263,-0.0248,-0.0232,-0.0231,-0.0214,-0.0213,-0.0212,-0.019,-0.019,-0.0189,-0.0189,-0.0132,-0.013,-0.0128,-0.0117,0,0,-0.0121,-0.012,0,0,0,0,0,0,0,0,-0.0246,-0.0244,-0.0235,-0.0233,-0.0231,-0.0206,-0.0197,-0.0179,-0.019,-0.0205,-0.0189,-0.0189,-0.0154,-0.015,-0.0144,-0.0114,-0.0111,-0.0121,-0.0119,-0.0118,-0.0118,0,0,0,0,0,0,0,-0.0247,-0.0245,-0.0234,-0.0235,-0.0232,-0.0216,-0.0214,-0.0193,-0.018,-0.0203,-0.0202,-0.0199,-0.0153,-0.0146,-0.0142,-0.0111,-0.0121,-0.0119,-0.0117,-0.0116,-0.0066,-0.0066,0,0,0,0,0,0,-0.0254,-0.0247,-0.0235,-0.0233,-0.0239,-0.0216,-0.0213,-0.0214,-0.018,-0.0176,-0.0199,-0.0198,-0.015,-0.0145,-0.014,-0.0124,-0.0118,-0.0116,-0.0115,-0.0066,-0.0066,-0.0066,0,0,0,0,0,0,-0.0255,-0.0254,-0.0236,-0.0239,-0.0236,-0.0216,-0.0217,-0.0213,-0.0209,-0.0178,-0.0172,-0.0199,-0.0149,-0.0143,-0.0121,-0.0121,-0.0115,-0.0113,-0.0066,-0.0066,-0.0066,-0.0092,0,0,0,0,0,0,-0.0255,-0.0254,-0.026,-0.024,-0.0236,-0.0232,-0.0217,-0.0213,-0.0208,-0.0206,-0.0176,-0.017,-0.0149,-0.0125,-0.0119,-0.0118,-0.0111,-0.0066,-0.0066,-0.0066,-0.0092,-0.0093,-0.0095,0,0,0,0,0,-0.0256,-0.0266,-0.0261,-0.026,-0.0244,-0.0232,-0.0229,-0.0214,-0.0208,-0.0209,-0.0185,-0.0171,-0.0121,-0.0123,-0.0116,-0.0115,-0.0066,-0.0066,-0.0066,-0.0091,-0.0093,-0.0095,0,0,0,0,0,0,-0.0276,-0.0264,-0.0258,-0.0264,-0.0252,-0.0229,-0.023,-0.0218,-0.0201,-0.02,-0.0169,-0.0161,-0.0144,-0.0126,-0.0129,-0.01,-0.0092,-0.0091,-0.0113,-0.0115,-0.0116,-0.0125,-0.011,0,0,0,0,0,-0.0283,-0.0288,-0.027,-0.0276,-0.0272,-0.0252,-0.0247,-0.0237,-0.0217,-0.021,-0.0187,-0.0162,-0.0139,-0.0125,-0.0105,-0.0087,-0.0062,-0.0082,-0.0084,-0.0085,-0.0087,-0.0043,-0.0041,-0.0066,-0.0066,-0.0066,0,0,-0.0293,-0.0287,-0.029,-0.0281,-0.0271,-0.0269,-0.0249,-0.0245,-0.0241,-0.0206,-0.0194,-0.0169,-0.0136,-0.0117,-0.0108,-0.0101,-0.0066,-0.0085,-0.0087,-0.0088,-0.0043,-0.004,-0.0038,-0.0066,-0.0066,-0.0066,0,0,-0.0315,-0.0309,-0.0321,-0.0313,-0.0303,-0.0288,-0.0289,-0.0268,-0.0257,-0.0242,-0.0214,-0.0186,-0.0157,-0.0127,-0.0109,-0.0107,-0.0079,-0.0105,-0.0115,-0.0072,-0.0069,-0.0067,-0.0036,-0.003,-0.0102,-0.0102,-0.0102,0,-0.0328,-0.034,-0.0322,-0.0329,-0.0327,-0.0299,-0.0307,-0.029,-0.0264,-0.0252,-0.0245,-0.0188,-0.016,-0.0124,-0.0123,-0.011,-0.0087,-0.011,-0.0074,-0.0071,-0.0067,-0.0036,-0.003,-0.0103,-0.0103,-0.0103,-0.0103,0,-0.0355,-0.0366,-0.0372,-0.0372,-0.0364,-0.0368,-0.0341,-0.0331,-0.0313,-0.029,-0.0257,-0.0212,-0.0177,-0.0162,-0.0141,-0.0105,-0.0097,-0.0084,-0.0069,-0.0066,-0.0034,-0.0026,-0.0105,-0.0105,-0.0104,-0.0104,0,0,-0.0383,-0.0392,-0.0396,-0.0407,-0.0389,-0.0388,-0.0376,-0.0356,-0.0349,-0.0311,-0.0293,-0.0241,-0.0212,-0.019,-0.0153,-0.0111,-0.0068,-0.0092,-0.0089,-0.0063,0.0019,0.0016,0.0023,-0.0048,-0.0046,-0.0045,0.0032,0,-0.0412,-0.0442,-0.0433,-0.0458,-0.0467,-0.0439,-0.0431,-0.0405,-0.0375,-0.0348,-0.0286,-0.0258,-0.0223,-0.0207,-0.0158,-0.0091,-0.0049,-0.009,0.0014,0.0017,0.0012,0.0031,-0.0042,0.0037,0.0039,0.004,0.0041,0,-0.0441,-0.0457,-0.049,-0.0503,-0.0505,-0.0515,-0.0498,-0.0486,-0.0431,-0.0405,-0.0354,-0.0306,-0.0236,-0.0211,-0.009,-0.0119,-0.0057,-0.0002,0.0002,0.0013,0.0027,0.0036,0.0055,0.0054,0.0053,0.0052,0.0051,0,-0.047,-0.0498,-0.0531,-0.0535,-0.0539,-0.0551,-0.0549,-0.0507,-0.0498,-0.044,-0.0423,-0.0332,-0.0287,-0.0193,-0.0079,-0.0085,0.0054,0.0061,0.0118,0.0118,0.0109,0.0106,0.0144,0.0144,0.0143,0.0143,0.0143,0,-0.05,-0.0528,-0.0555,-0.0575,-0.0614,-0.0594,-0.0615,-0.0596,-0.0556,-0.0541,-0.0459,-0.0421,-0.028,-0.0183,-0.0085,0.0041,0.0053,0.012,0.0142,0.0095,0.009,0.0115,0.011,0.0146,0.0145,0.0145,0.0144,0,-0.0525,-0.0542,-0.0588,-0.0617,-0.0634,-0.066,-0.0676,-0.0676,-0.0636,-0.0611,-0.0595,-0.0479,-0.0349,-0.0208,-0.0044,0.0029,0.015,0.019,0.0126,0.0143,0.0185,0.0178,0.0257,0.0258,0.0258,0.0259,0.0259,0,-0.0539,-0.0566,-0.0632,-0.0668,-0.0692,-0.0727,-0.0746,-0.0723,-0.0716,-0.0644,-0.0631,-0.0504,-0.0413,-0.0177,-0.0038,0.0153,0.0177,0.0231,0.0212,0.0185,0.0199,0.0191,0.0184,0.026,0.026,0.026,0.026,0,-0.0565,-0.0596,-0.0635,-0.0713,-0.076,-0.0798,-0.0823,-0.0821,-0.0777,-0.0748,-0.064,-0.0508,-0.0357,-0.0174,-0.0022,0.0111,0.0192,0.0236,0.0236,0.0219,0.0189,0.0201,0.0193,0.0262,0.0262,0.0262,0.0261,0,-0.0585,-0.0623,-0.0683,-0.0747,-0.0809,-0.0846,-0.0855,-0.0829,-0.081,-0.072,-0.0686,-0.0512,-0.0406,-0.0196,-0.0059,0.0077,0.0104,0.0135,0.014,0.0139,0.0081,0.0024,0.007,0,0,0,0,0,-0.0596,-0.0642,-0.0709,-0.0777,-0.0837,-0.0869,-0.0893,-0.0882,-0.0844,-0.0771,-0.0722,-0.0575,-0.0343,-0.024,-0.0104,-0.0069,0.0109,0.0092,0.0142,0.0272,0.027,0.0221,0,0,0,0,0,0,-0.0606,-0.0672,-0.0709,-0.0784,-0.0831,-0.0887,-0.0899,-0.0875,-0.0822,-0.0765,-0.0635,-0.0557,-0.033,-0.0418,-0.0104,-0.0063,-0.0017,0.0204,0.0207,0.0273,0.0271,0.0269,0.0219,0,0,0,0,0]}]]